This is the latest recevied weather packets stored in our database for station/object OE5RBO. If no packets are shown the sender has not sent any weather packets the latest 10 day(s).
| Time | Temp. | Humidity | Pressure | Rain* | Wind** | Luminosity | Snow |
|---|---|---|---|---|---|---|---|
| 1777568073 | 13.89° C | 42% | 1025.5 hPa | 0.25 mm | - | - | - |
| 1777567473 | 13.89° C | 40% | 1025.5 hPa | 0.25 mm | - | - | - |
| 1777566873 | 13.89° C | 43% | 1025.4 hPa | 0.25 mm | - | - | - |
| 1777566272 | 14.44° C | 41% | 1025.5 hPa | 0.25 mm | - | - | - |
| 1777565671 | 14.44° C | 41% | 1025.6 hPa | 0.25 mm | - | - | - |
| 1777565070 | 13.89° C | 44% | 1025.5 hPa | 0.25 mm | - | - | - |
| 1777564470 | 13.89° C | 39% | 1025.6 hPa | 0.25 mm | - | - | - |
| 1777563871 | 14.44° C | 40% | 1025.6 hPa | 0.25 mm | - | - | - |
| 1777563269 | 13.33° C | 39% | 1025.6 hPa | 0.25 mm | - | - | - |
| 1777562670 | 14.44° C | 39% | 1025.6 hPa | 0.25 mm | - | - | - |
| 1777562069 | 15° C | 39% | 1025.6 hPa | 0.25 mm | - | - | - |
| 1777561469 | 15.56° C | 37% | 1025.6 hPa | 0.25 mm | - | - | - |
| 1777560869 | 15° C | 37% | 1025.6 hPa | 0.25 mm | - | - | - |
| 1777560267 | 15° C | 35% | 1025.6 hPa | 0.25 mm | - | - | - |
| 1777559668 | 15° C | 35% | 1025.6 hPa | 0.25 mm | - | - | - |
| 1777559068 | 15.56° C | 31% | 1025.8 hPa | 0.25 mm | - | - | - |
| 1777558467 | 15.56° C | 35% | 1025.7 hPa | 0.25 mm | - | - | - |
| 1777557867 | 15° C | 30% | 1025.7 hPa | 0.25 mm | - | - | - |
| 1777557266 | 15.56° C | 34% | 1025.7 hPa | 0.25 mm | - | - | - |
| 1777556665 | 15° C | 36% | 1025.7 hPa | 0.25 mm | - | - | - |
| 1777556066 | 14.44° C | 37% | 1025.8 hPa | 0.25 mm | - | - | - |
| 1777555465 | 13.89° C | 37% | 1025.9 hPa | 0.25 mm | - | - | - |
| 1777554865 | 13.89° C | 40% | 1026 hPa | 0.25 mm | - | - | - |
| 1777554265 | 13.89° C | 42% | 1026 hPa | 0.25 mm | - | - | - |
| 1777553665 | 14.44° C | 36% | 1026.1 hPa | 0.25 mm | - | - | - |
* Rain since midnight (hover to see other rain measurements)
** Current wind speed in m/s (hover to see current wind gust speed)